locationName,lineName,date,time,countIn,countOut
�����w�O,�w����,2022/4/1,0:00,0,0
�����w�O,�w����,2022/4/1,1:00,0,0
�����w�O,�w����,2022/4/1,2:00,0,0
�����w�O,�w����,2022/4/1,3:00,0,0
�����w�O,�w����,2022/4/1,4:00,0,0
�����w�O,�w����,2022/4/1,5:00,0,0
�����w�O,�w����,2022/4/1,6:00,0,0
�����w�O,�w����,2022/4/1,7:00,0,0
�����w�O,�w����,2022/4/1,8:00,0,0
�����w�O,�w����,2022/4/1,9:00,0,0
�����w�O,�w����,2022/4/1,10:00,0,0
�����w�O,�w����,2022/4/1,11:00,0,0
�����w�O,�w����,2022/4/1,12:00,0,0
�����w�O,�w����,2022/4/1,13:00,84,88
�����w�O,�w����,2022/4/1,14:00,29,43
�����w�O,�w����,2022/4/1,15:00,247,205
�����w�O,�w����,2022/4/1,16:00,238,207
�����w�O,�w����,2022/4/1,17:00,299,220
�����w�O,�w����,2022/4/1,18:00,217,204
�����w�O,�w����,2022/4/1,19:00,124,155
�����w�O,�w����,2022/4/1,20:00,64,77
�����w�O,�w����,2022/4/1,21:00,60,62
�����w�O,�w����,2022/4/1,22:00,24,39
�����w�O,�w����,2022/4/1,23:00,5,17
�����w�O,�w����,2022/4/2,0:00,0,3
�����w�O,�w����,2022/4/2,1:00,0,0
�����w�O,�w����,2022/4/2,2:00,0,0
�����w�O,�w����,2022/4/2,3:00,2,0
�����w�O,�w����,2022/4/2,4:00,0,0
�����w�O,�w����,2022/4/2,5:00,11,9
�����w�O,�w����,2022/4/2,6:00,47,40
�����w�O,�w����,2022/4/2,7:00,63,85
�����w�O,�w����,2022/4/2,8:00,113,191
�����w�O,�w����,2022/4/2,9:00,148,293
�����w�O,�w����,2022/4/2,10:00,146,317
�����w�O,�w����,2022/4/2,11:00,167,360
�����w�O,�w����,2022/4/2,12:00,235,318
�����w�O,�w����,2022/4/2,13:00,264,273
�����w�O,�w����,2022/4/2,14:00,304,337
�����w�O,�w����,2022/4/2,15:00,349,296
�����w�O,�w����,2022/4/2,16:00,341,250
�����w�O,�w����,2022/4/2,17:00,297,219
�����w�O,�w����,2022/4/2,18:00,221,145
�����w�O,�w����,2022/4/2,19:00,157,196
�����w�O,�w����,2022/4/2,20:00,94,92
�����w�O,�w����,2022/4/2,21:00,74,75
�����w�O,�w����,2022/4/2,22:00,41,39
�����w�O,�w����,2022/4/2,23:00,18,29
�����w�O,�w����,2022/4/3,0:00,29,35
�����w�O,�w����,2022/4/3,1:00,38,59
�����w�O,�w����,2022/4/3,2:00,94,95
�����w�O,�w����,2022/4/3,3:00,13,11
�����w�O,�w����,2022/4/3,4:00,3,3
�����w�O,�w����,2022/4/3,5:00,3,6
�����w�O,�w����,2022/4/3,6:00,30,25
�����w�O,�w����,2022/4/3,7:00,60,76
�����w�O,�w����,2022/4/3,8:00,97,177
�����w�O,�w����,2022/4/3,9:00,129,261
�����w�O,�w����,2022/4/3,10:00,175,343
�����w�O,�w����,2022/4/3,11:00,171,403
�����w�O,�w����,2022/4/3,12:00,235,329
�����w�O,�w����,2022/4/3,13:00,265,281
�����w�O,�w����,2022/4/3,14:00,368,365
�����w�O,�w����,2022/4/3,15:00,395,290
�����w�O,�w����,2022/4/3,16:00,375,298
�����w�O,�w����,2022/4/3,17:00,288,214
�����w�O,�w����,2022/4/3,18:00,250,214
�����w�O,�w����,2022/4/3,19:00,160,169
�����w�O,�w����,2022/4/3,20:00,83,74
�����w�O,�w����,2022/4/3,21:00,50,60
�����w�O,�w����,2022/4/3,22:00,24,31
�����w�O,�w����,2022/4/3,23:00,8,12
�����w�O,�w����,2022/4/4,0:00,1,0
�����w�O,�w����,2022/4/4,1:00,1,1
�����w�O,�w����,2022/4/4,2:00,0,0
�����w�O,�w����,2022/4/4,3:00,1,0
�����w�O,�w����,2022/4/4,4:00,1,0
�����w�O,�w����,2022/4/4,5:00,8,7
�����w�O,�w����,2022/4/4,6:00,76,48
�����w�O,�w����,2022/4/4,7:00,126,153
�����w�O,�w����,2022/4/4,8:00,107,221
�����w�O,�w����,2022/4/4,9:00,132,182
�����w�O,�w����,2022/4/4,10:00,146,257
�����w�O,�w����,2022/4/4,11:00,135,288
�����w�O,�w����,2022/4/4,12:00,174,224
�����w�O,�w����,2022/4/4,13:00,199,224
�����w�O,�w����,2022/4/4,14:00,282,269
�����w�O,�w����,2022/4/4,15:00,246,231
�����w�O,�w����,2022/4/4,16:00,234,177
�����w�O,�w����,2022/4/4,17:00,267,203
�����w�O,�w����,2022/4/4,18:00,171,144
�����w�O,�w����,2022/4/4,19:00,124,127
�����w�O,�w����,2022/4/4,20:00,87,90
�����w�O,�w����,2022/4/4,21:00,54,59
�����w�O,�w����,2022/4/4,22:00,9,28
�����w�O,�w����,2022/4/4,23:00,6,2
�����w�O,�w����,2022/4/5,0:00,2,0
�����w�O,�w����,2022/4/5,1:00,0,0
�����w�O,�w����,2022/4/5,2:00,0,0
�����w�O,�w����,2022/4/5,3:00,1,2
�����w�O,�w����,2022/4/5,4:00,1,1
�����w�O,�w����,2022/4/5,5:00,6,2
�����w�O,�w����,2022/4/5,6:00,64,32
�����w�O,�w����,2022/4/5,7:00,115,143
�����w�O,�w����,2022/4/5,8:00,89,227
�����w�O,�w����,2022/4/5,9:00,97,178
�����w�O,�w����,2022/4/5,10:00,139,251
�����w�O,�w����,2022/4/5,11:00,133,214
�����w�O,�w����,2022/4/5,12:00,171,201
�����w�O,�w����,2022/4/5,13:00,180,171
�����w�O,�w����,2022/4/5,14:00,219,191
�����w�O,�w����,2022/4/5,15:00,255,204
�����w�O,�w����,2022/4/5,16:00,182,160
�����w�O,�w����,2022/4/5,17:00,230,181
�����w�O,�w����,2022/4/5,18:00,139,140
�����w�O,�w����,2022/4/5,19:00,100,157
�����w�O,�w����,2022/4/5,20:00,47,65
�����w�O,�w����,2022/4/5,21:00,49,40
�����w�O,�w����,2022/4/5,22:00,24,36
�����w�O,�w����,2022/4/5,23:00,6,5
�����w�O,�w����,2022/4/6,0:00,1,1
�����w�O,�w����,2022/4/6,1:00,0,0
�����w�O,�w����,2022/4/6,2:00,0,0
�����w�O,�w����,2022/4/6,3:00,1,0
�����w�O,�w����,2022/4/6,4:00,3,3
�����w�O,�w����,2022/4/6,5:00,6,4
�����w�O,�w����,2022/4/6,6:00,76,35
�����w�O,�w����,2022/4/6,7:00,142,178
�����w�O,�w����,2022/4/6,8:00,107,201
�����w�O,�w����,2022/4/6,9:00,101,172
�����w�O,�w����,2022/4/6,10:00,106,159
�����w�O,�w����,2022/4/6,11:00,116,208
�����w�O,�w����,2022/4/6,12:00,179,190
�����w�O,�w����,2022/4/6,13:00,237,169
�����w�O,�w����,2022/4/6,14:00,187,234
�����w�O,�w����,2022/4/6,15:00,201,170
�����w�O,�w����,2022/4/6,16:00,156,164
�����w�O,�w����,2022/4/6,17:00,208,157
�����w�O,�w����,2022/4/6,18:00,185,186
�����w�O,�w����,2022/4/6,19:00,101,121
�����w�O,�w����,2022/4/6,20:00,67,74
�����w�O,�w����,2022/4/6,21:00,39,63
�����w�O,�w����,2022/4/6,22:00,9,45
�����w�O,�w����,2022/4/6,23:00,4,9
�����w�O,�w����,2022/4/7,0:00,4,10
�����w�O,�w����,2022/4/7,1:00,0,0
�����w�O,�w����,2022/4/7,2:00,0,0
�����w�O,�w����,2022/4/7,3:00,0,0
�����w�O,�w����,2022/4/7,4:00,2,0
�����w�O,�w����,2022/4/7,5:00,3,7
�����w�O,�w����,2022/4/7,6:00,66,36
�����w�O,�w����,2022/4/7,7:00,133,135
�����w�O,�w����,2022/4/7,8:00,98,174
�����w�O,�w����,2022/4/7,9:00,76,126
�����w�O,�w����,2022/4/7,10:00,106,151
�����w�O,�w����,2022/4/7,11:00,106,194
�����w�O,�w����,2022/4/7,12:00,160,153
�����w�O,�w����,2022/4/7,13:00,179,176
�����w�O,�w����,2022/4/7,14:00,136,176
�����w�O,�w����,2022/4/7,15:00,212,177
�����w�O,�w����,2022/4/7,16:00,160,161
�����w�O,�w����,2022/4/7,17:00,190,132
�����w�O,�w����,2022/4/7,18:00,141,140
�����w�O,�w����,2022/4/7,19:00,62,110
�����w�O,�w����,2022/4/7,20:00,36,33
�����w�O,�w����,2022/4/7,21:00,36,50
�����w�O,�w����,2022/4/7,22:00,17,14
�����w�O,�w����,2022/4/7,23:00,7,18
�����w�O,�w����,2022/4/8,0:00,1,1
�����w�O,�w����,2022/4/8,1:00,0,0
�����w�O,�w����,2022/4/8,2:00,0,0
�����w�O,�w����,2022/4/8,3:00,0,0
�����w�O,�w����,2022/4/8,4:00,0,0
�����w�O,�w����,2022/4/8,5:00,3,4
�����w�O,�w����,2022/4/8,6:00,76,49
�����w�O,�w����,2022/4/8,7:00,162,203
�����w�O,�w����,2022/4/8,8:00,112,208
�����w�O,�w����,2022/4/8,9:00,78,147
�����w�O,�w����,2022/4/8,10:00,116,180
�����w�O,�w����,2022/4/8,11:00,88,171
�����w�O,�w����,2022/4/8,12:00,114,148
�����w�O,�w����,2022/4/8,13:00,134,166
�����w�O,�w����,2022/4/8,14:00,182,209
�����w�O,�w����,2022/4/8,15:00,164,142
�����w�O,�w����,2022/4/8,16:00,233,208
�����w�O,�w����,2022/4/8,17:00,211,162
�����w�O,�w����,2022/4/8,18:00,152,143
�����w�O,�w����,2022/4/8,19:00,121,123
�����w�O,�w����,2022/4/8,20:00,74,109
�����w�O,�w����,2022/4/8,21:00,53,55
�����w�O,�w����,2022/4/8,22:00,33,40
�����w�O,�w����,2022/4/8,23:00,6,12
�����w�O,�w����,2022/4/9,0:00,0,0
�����w�O,�w����,2022/4/9,1:00,0,0
�����w�O,�w����,2022/4/9,2:00,0,0
�����w�O,�w����,2022/4/9,3:00,1,1
�����w�O,�w����,2022/4/9,4:00,0,1
�����w�O,�w����,2022/4/9,5:00,7,7
�����w�O,�w����,2022/4/9,6:00,46,26
�����w�O,�w����,2022/4/9,7:00,56,72
�����w�O,�w����,2022/4/9,8:00,110,145
�����w�O,�w����,2022/4/9,9:00,85,177
�����w�O,�w����,2022/4/9,10:00,93,227
�����w�O,�w����,2022/4/9,11:00,87,195
�����w�O,�w����,2022/4/9,12:00,126,204
�����w�O,�w����,2022/4/9,13:00,174,127
�����w�O,�w����,2022/4/9,14:00,211,226
�����w�O,�w����,2022/4/9,15:00,198,159
�����w�O,�w����,2022/4/9,16:00,178,161
�����w�O,�w����,2022/4/9,17:00,190,157
�����w�O,�w����,2022/4/9,18:00,139,120
�����w�O,�w����,2022/4/9,19:00,119,155
�����w�O,�w����,2022/4/9,20:00,84,91
�����w�O,�w����,2022/4/9,21:00,59,66
�����w�O,�w����,2022/4/9,22:00,23,36
�����w�O,�w����,2022/4/9,23:00,22,22
�����w�O,�w����,2022/4/10,0:00,0,0
�����w�O,�w����,2022/4/10,1:00,0,0
�����w�O,�w����,2022/4/10,2:00,0,0
�����w�O,�w����,2022/4/10,3:00,1,0
�����w�O,�w����,2022/4/10,4:00,2,0
�����w�O,�w����,2022/4/10,5:00,6,6
�����w�O,�w����,2022/4/10,6:00,25,26
�����w�O,�w����,2022/4/10,7:00,50,60
�����w�O,�w����,2022/4/10,8:00,95,126
�����w�O,�w����,2022/4/10,9:00,96,173
�����w�O,�w����,2022/4/10,10:00,113,187
�����w�O,�w����,2022/4/10,11:00,110,207
�����w�O,�w����,2022/4/10,12:00,156,271
�����w�O,�w����,2022/4/10,13:00,181,186
�����w�O,�w����,2022/4/10,14:00,202,238
�����w�O,�w����,2022/4/10,15:00,161,179
�����w�O,�w����,2022/4/10,16:00,207,188
�����w�O,�w����,2022/4/10,17:00,145,154
�����w�O,�w����,2022/4/10,18:00,129,110
�����w�O,�w����,2022/4/10,19:00,80,112
�����w�O,�w����,2022/4/10,20:00,47,53
�����w�O,�w����,2022/4/10,21:00,22,57
�����w�O,�w����,2022/4/10,22:00,15,33
�����w�O,�w����,2022/4/10,23:00,3,8
�����w�O,�w����,2022/4/11,0:00,0,0
�����w�O,�w����,2022/4/11,1:00,0,0
�����w�O,�w����,2022/4/11,2:00,0,0
�����w�O,�w����,2022/4/11,3:00,0,0
�����w�O,�w����,2022/4/11,4:00,1,0
�����w�O,�w����,2022/4/11,5:00,2,4
�����w�O,�w����,2022/4/11,6:00,81,39
�����w�O,�w����,2022/4/11,7:00,134,169
�����w�O,�w����,2022/4/11,8:00,79,177
�����w�O,�w����,2022/4/11,9:00,87,172
�����w�O,�w����,2022/4/11,10:00,90,108
�����w�O,�w����,2022/4/11,11:00,84,111
�����w�O,�w����,2022/4/11,12:00,102,130
�����w�O,�w����,2022/4/11,13:00,112,121
�����w�O,�w����,2022/4/11,14:00,96,119
�����w�O,�w����,2022/4/11,15:00,110,107
�����w�O,�w����,2022/4/11,16:00,154,145
�����w�O,�w����,2022/4/11,17:00,176,109
�����w�O,�w����,2022/4/11,18:00,146,117
�����w�O,�w����,2022/4/11,19:00,86,117
�����w�O,�w����,2022/4/11,20:00,42,71
�����w�O,�w����,2022/4/11,21:00,33,33
�����w�O,�w����,2022/4/11,22:00,11,21
�����w�O,�w����,2022/4/11,23:00,1,5
�����w�O,�w����,2022/4/12,0:00,1,0
�����w�O,�w����,2022/4/12,1:00,0,0
�����w�O,�w����,2022/4/12,2:00,0,0
�����w�O,�w����,2022/4/12,3:00,0,0
�����w�O,�w����,2022/4/12,4:00,2,1
�����w�O,�w����,2022/4/12,5:00,6,0
�����w�O,�w����,2022/4/12,6:00,83,45
�����w�O,�w����,2022/4/12,7:00,144,178
�����w�O,�w����,2022/4/12,8:00,87,183
�����w�O,�w����,2022/4/12,9:00,41,110
�����w�O,�w����,2022/4/12,10:00,71,113
�����w�O,�w����,2022/4/12,11:00,57,105
�����w�O,�w����,2022/4/12,12:00,57,96
�����w�O,�w����,2022/4/12,13:00,80,89
�����w�O,�w����,2022/4/12,14:00,65,95
�����w�O,�w����,2022/4/12,15:00,122,102
�����w�O,�w����,2022/4/12,16:00,129,110
�����w�O,�w����,2022/4/12,17:00,149,119
�����w�O,�w����,2022/4/12,18:00,139,111
�����w�O,�w����,2022/4/12,19:00,122,130
�����w�O,�w����,2022/4/12,20:00,38,52
�����w�O,�w����,2022/4/12,21:00,43,39
�����w�O,�w����,2022/4/12,22:00,18,14
�����w�O,�w����,2022/4/12,23:00,2,7
�����w�O,�w����,2022/4/13,0:00,0,1
�����w�O,�w����,2022/4/13,1:00,0,0
�����w�O,�w����,2022/4/13,2:00,0,0
�����w�O,�w����,2022/4/13,3:00,0,0
�����w�O,�w����,2022/4/13,4:00,1,0
�����w�O,�w����,2022/4/13,5:00,4,4
�����w�O,�w����,2022/4/13,6:00,84,50
�����w�O,�w����,2022/4/13,7:00,129,178
�����w�O,�w����,2022/4/13,8:00,99,171
�����w�O,�w����,2022/4/13,9:00,68,106
�����w�O,�w����,2022/4/13,10:00,66,93
�����w�O,�w����,2022/4/13,11:00,53,83
�����w�O,�w����,2022/4/13,12:00,76,85
�����w�O,�w����,2022/4/13,13:00,74,77
�����w�O,�w����,2022/4/13,14:00,64,105
�����w�O,�w����,2022/4/13,15:00,92,77
�����w�O,�w����,2022/4/13,16:00,146,117
�����w�O,�w����,2022/4/13,17:00,219,172
�����w�O,�w����,2022/4/13,18:00,146,132
�����w�O,�w����,2022/4/13,19:00,91,99
�����w�O,�w����,2022/4/13,20:00,32,30
�����w�O,�w����,2022/4/13,21:00,31,54
�����w�O,�w����,2022/4/13,22:00,11,28
�����w�O,�w����,2022/4/13,23:00,2,9
�����w�O,�w����,2022/4/14,0:00,1,0
�����w�O,�w����,2022/4/14,1:00,1,1
�����w�O,�w����,2022/4/14,2:00,0,0
�����w�O,�w����,2022/4/14,3:00,0,0
�����w�O,�w����,2022/4/14,4:00,2,0
�����w�O,�w����,2022/4/14,5:00,10,2
�����w�O,�w����,2022/4/14,6:00,86,52
�����w�O,�w����,2022/4/14,7:00,216,238
�����w�O,�w����,2022/4/14,8:00,135,196
�����w�O,�w����,2022/4/14,9:00,100,101
�����w�O,�w����,2022/4/14,10:00,75,94
�����w�O,�w����,2022/4/14,11:00,89,118
�����w�O,�w����,2022/4/14,12:00,119,115
�����w�O,�w����,2022/4/14,13:00,109,109
�����w�O,�w����,2022/4/14,14:00,81,95
�����w�O,�w����,2022/4/14,15:00,151,108
�����w�O,�w����,2022/4/14,16:00,230,152
�����w�O,�w����,2022/4/14,17:00,322,177
�����w�O,�w����,2022/4/14,18:00,243,113
�����w�O,�w����,2022/4/14,19:00,122,136
�����w�O,�w����,2022/4/14,20:00,54,57
�����w�O,�w����,2022/4/14,21:00,37,59
�����w�O,�w����,2022/4/14,22:00,29,25
�����w�O,�w����,2022/4/14,23:00,8,9
�����w�O,�w����,2022/4/15,0:00,1,7
�����w�O,�w����,2022/4/15,1:00,0,0
�����w�O,�w����,2022/4/15,2:00,0,0
�����w�O,�w����,2022/4/15,3:00,0,0
�����w�O,�w����,2022/4/15,4:00,2,0
�����w�O,�w����,2022/4/15,5:00,5,2
�����w�O,�w����,2022/4/15,6:00,101,52
�����w�O,�w����,2022/4/15,7:00,192,217
�����w�O,�w����,2022/4/15,8:00,138,220
�����w�O,�w����,2022/4/15,9:00,104,170
�����w�O,�w����,2022/4/15,10:00,141,167
�����w�O,�w����,2022/4/15,11:00,141,177
�����w�O,�w����,2022/4/15,12:00,120,161
�����w�O,�w����,2022/4/15,13:00,159,146
�����w�O,�w����,2022/4/15,14:00,106,151
�����w�O,�w����,2022/4/15,15:00,158,120
�����w�O,�w����,2022/4/15,16:00,193,144
�����w�O,�w����,2022/4/15,17:00,201,144
�����w�O,�w����,2022/4/15,18:00,187,152
�����w�O,�w����,2022/4/15,19:00,125,146
�����w�O,�w����,2022/4/15,20:00,60,75
�����w�O,�w����,2022/4/15,21:00,54,66
�����w�O,�w����,2022/4/15,22:00,34,49
�����w�O,�w����,2022/4/15,23:00,6,17
�����w�O,�w����,2022/4/16,0:00,0,0
�����w�O,�w����,2022/4/16,1:00,0,0
�����w�O,�w����,2022/4/16,2:00,0,0
�����w�O,�w����,2022/4/16,3:00,0,0
�����w�O,�w����,2022/4/16,4:00,2,1
�����w�O,�w����,2022/4/16,5:00,6,6
�����w�O,�w����,2022/4/16,6:00,28,31
�����w�O,�w����,2022/4/16,7:00,68,124
�����w�O,�w����,2022/4/16,8:00,107,176
�����w�O,�w����,2022/4/16,9:00,100,149
�����w�O,�w����,2022/4/16,10:00,84,182
�����w�O,�w����,2022/4/16,11:00,138,240
�����w�O,�w����,2022/4/16,12:00,170,196
�����w�O,�w����,2022/4/16,13:00,179,158
�����w�O,�w����,2022/4/16,14:00,213,207
�����w�O,�w����,2022/4/16,15:00,191,171
�����w�O,�w����,2022/4/16,16:00,194,224
�����w�O,�w����,2022/4/16,17:00,129,171
�����w�O,�w����,2022/4/16,18:00,149,129
�����w�O,�w����,2022/4/16,19:00,85,141
�����w�O,�w����,2022/4/16,20:00,70,74
�����w�O,�w����,2022/4/16,21:00,64,66
�����w�O,�w����,2022/4/16,22:00,27,28
�����w�O,�w����,2022/4/16,23:00,16,37
�����w�O,�w����,2022/4/17,0:00,0,0
�����w�O,�w����,2022/4/17,1:00,0,0
�����w�O,�w����,2022/4/17,2:00,0,0
�����w�O,�w����,2022/4/17,3:00,1,1
�����w�O,�w����,2022/4/17,4:00,1,1
�����w�O,�w����,2022/4/17,5:00,7,10
�����w�O,�w����,2022/4/17,6:00,23,26
�����w�O,�w����,2022/4/17,7:00,58,91
�����w�O,�w����,2022/4/17,8:00,79,110
�����w�O,�w����,2022/4/17,9:00,126,140
�����w�O,�w����,2022/4/17,10:00,125,198
�����w�O,�w����,2022/4/17,11:00,111,199
�����w�O,�w����,2022/4/17,12:00,133,172
�����w�O,�w����,2022/4/17,13:00,149,162
�����w�O,�w����,2022/4/17,14:00,206,244
�����w�O,�w����,2022/4/17,15:00,209,170
�����w�O,�w����,2022/4/17,16:00,207,203
�����w�O,�w����,2022/4/17,17:00,169,166
�����w�O,�w����,2022/4/17,18:00,128,137
�����w�O,�w����,2022/4/17,19:00,99,140
�����w�O,�w����,2022/4/17,20:00,58,70
�����w�O,�w����,2022/4/17,21:00,32,45
�����w�O,�w����,2022/4/17,22:00,12,21
�����w�O,�w����,2022/4/17,23:00,2,7
�����w�O,�w����,2022/4/18,0:00,1,1
�����w�O,�w����,2022/4/18,1:00,0,0
�����w�O,�w����,2022/4/18,2:00,0,0
�����w�O,�w����,2022/4/18,3:00,0,0
�����w�O,�w����,2022/4/18,4:00,0,0
�����w�O,�w����,2022/4/18,5:00,7,7
�����w�O,�w����,2022/4/18,6:00,68,44
�����w�O,�w����,2022/4/18,7:00,137,214
�����w�O,�w����,2022/4/18,8:00,92,161
�����w�O,�w����,2022/4/18,9:00,96,129
�����w�O,�w����,2022/4/18,10:00,94,136
�����w�O,�w����,2022/4/18,11:00,81,128
�����w�O,�w����,2022/4/18,12:00,80,121
�����w�O,�w����,2022/4/18,13:00,120,122
�����w�O,�w����,2022/4/18,14:00,129,126
�����w�O,�w����,2022/4/18,15:00,146,117
�����w�O,�w����,2022/4/18,16:00,153,137
�����w�O,�w����,2022/4/18,17:00,154,119
�����w�O,�w����,2022/4/18,18:00,190,141
�����w�O,�w����,2022/4/18,19:00,115,116
�����w�O,�w����,2022/4/18,20:00,55,75
�����w�O,�w����,2022/4/18,21:00,22,33
�����w�O,�w����,2022/4/18,22:00,11,23
�����w�O,�w����,2022/4/18,23:00,5,6
�����w�O,�w����,2022/4/19,0:00,0,0
�����w�O,�w����,2022/4/19,1:00,0,0
�����w�O,�w����,2022/4/19,2:00,0,0
�����w�O,�w����,2022/4/19,3:00,1,1
�����w�O,�w����,2022/4/19,4:00,1,0
�����w�O,�w����,2022/4/19,5:00,8,6
�����w�O,�w����,2022/4/19,6:00,72,36
�����w�O,�w����,2022/4/19,7:00,158,161
�����w�O,�w����,2022/4/19,8:00,99,206
�����w�O,�w����,2022/4/19,9:00,57,113
�����w�O,�w����,2022/4/19,10:00,95,116
�����w�O,�w����,2022/4/19,11:00,72,124
�����w�O,�w����,2022/4/19,12:00,111,144
�����w�O,�w����,2022/4/19,13:00,110,99
�����w�O,�w����,2022/4/19,14:00,72,102
�����w�O,�w����,2022/4/19,15:00,117,102
�����w�O,�w����,2022/4/19,16:00,151,129
�����w�O,�w����,2022/4/19,17:00,162,119
�����w�O,�w����,2022/4/19,18:00,142,138
�����w�O,�w����,2022/4/19,19:00,112,131
�����w�O,�w����,2022/4/19,20:00,38,46
�����w�O,�w����,2022/4/19,21:00,39,42
�����w�O,�w����,2022/4/19,22:00,20,25
�����w�O,�w����,2022/4/19,23:00,11,9
�����w�O,�w����,2022/4/20,0:00,0,0
�����w�O,�w����,2022/4/20,1:00,0,0
�����w�O,�w����,2022/4/20,2:00,0,0
�����w�O,�w����,2022/4/20,3:00,1,1
�����w�O,�w����,2022/4/20,4:00,0,1
�����w�O,�w����,2022/4/20,5:00,7,5
�����w�O,�w����,2022/4/20,6:00,79,47
�����w�O,�w����,2022/4/20,7:00,140,177
�����w�O,�w����,2022/4/20,8:00,89,200
�����w�O,�w����,2022/4/20,9:00,64,105
�����w�O,�w����,2022/4/20,10:00,71,100
�����w�O,�w����,2022/4/20,11:00,74,106
�����w�O,�w����,2022/4/20,12:00,72,91
�����w�O,�w����,2022/4/20,13:00,90,105
�����w�O,�w����,2022/4/20,14:00,89,95
�����w�O,�w����,2022/4/20,15:00,113,111
�����w�O,�w����,2022/4/20,16:00,140,117
�����w�O,�w����,2022/4/20,17:00,168,143
�����w�O,�w����,2022/4/20,18:00,166,113
�����w�O,�w����,2022/4/20,19:00,89,108
�����w�O,�w����,2022/4/20,20:00,43,49
�����w�O,�w����,2022/4/20,21:00,45,53
�����w�O,�w����,2022/4/20,22:00,12,24
�����w�O,�w����,2022/4/20,23:00,3,15
�����w�O,�w����,2022/4/21,0:00,0,0
�����w�O,�w����,2022/4/21,1:00,0,0
�����w�O,�w����,2022/4/21,2:00,0,0
�����w�O,�w����,2022/4/21,3:00,0,1
�����w�O,�w����,2022/4/21,4:00,2,0
�����w�O,�w����,2022/4/21,5:00,11,5
�����w�O,�w����,2022/4/21,6:00,85,40
�����w�O,�w����,2022/4/21,7:00,144,198
�����w�O,�w����,2022/4/21,8:00,84,161
�����w�O,�w����,2022/4/21,9:00,59,102
�����w�O,�w����,2022/4/21,10:00,66,98
�����w�O,�w����,2022/4/21,11:00,75,121
�����w�O,�w����,2022/4/21,12:00,151,122
�����w�O,�w����,2022/4/21,13:00,145,111
�����w�O,�w����,2022/4/21,14:00,109,111
�����w�O,�w����,2022/4/21,15:00,161,103
�����w�O,�w����,2022/4/21,16:00,216,141
�����w�O,�w����,2022/4/21,17:00,256,149
�����w�O,�w����,2022/4/21,18:00,205,133
�����w�O,�w����,2022/4/21,19:00,138,123
�����w�O,�w����,2022/4/21,20:00,65,64
�����w�O,�w����,2022/4/21,21:00,39,55
�����w�O,�w����,2022/4/21,22:00,34,31
�����w�O,�w����,2022/4/21,23:00,19,21
�����w�O,�w����,2022/4/22,0:00,0,3
�����w�O,�w����,2022/4/22,1:00,0,0
�����w�O,�w����,2022/4/22,2:00,0,0
�����w�O,�w����,2022/4/22,3:00,0,1
�����w�O,�w����,2022/4/22,4:00,3,2
�����w�O,�w����,2022/4/22,5:00,8,4
�����w�O,�w����,2022/4/22,6:00,104,49
�����w�O,�w����,2022/4/22,7:00,202,214
�����w�O,�w����,2022/4/22,8:00,139,237
�����w�O,�w����,2022/4/22,9:00,98,169
�����w�O,�w����,2022/4/22,10:00,96,137
�����w�O,�w����,2022/4/22,11:00,100,124
�����w�O,�w����,2022/4/22,12:00,141,154
�����w�O,�w����,2022/4/22,13:00,172,171
�����w�O,�w����,2022/4/22,14:00,126,151
�����w�O,�w����,2022/4/22,15:00,120,103
�����w�O,�w����,2022/4/22,16:00,177,123
�����w�O,�w����,2022/4/22,17:00,198,138
�����w�O,�w����,2022/4/22,18:00,220,166
�����w�O,�w����,2022/4/22,19:00,151,145
�����w�O,�w����,2022/4/22,20:00,46,71
�����w�O,�w����,2022/4/22,21:00,40,82
�����w�O,�w����,2022/4/22,22:00,46,44
�����w�O,�w����,2022/4/22,23:00,6,15
�����w�O,�w����,2022/4/23,0:00,2,1
�����w�O,�w����,2022/4/23,1:00,0,0
�����w�O,�w����,2022/4/23,2:00,0,0
�����w�O,�w����,2022/4/23,3:00,2,1
�����w�O,�w����,2022/4/23,4:00,2,3
�����w�O,�w����,2022/4/23,5:00,8,9
�����w�O,�w����,2022/4/23,6:00,53,32
�����w�O,�w����,2022/4/23,7:00,72,73
�����w�O,�w����,2022/4/23,8:00,84,108
�����w�O,�w����,2022/4/23,9:00,95,204
�����w�O,�w����,2022/4/23,10:00,150,223
�����w�O,�w����,2022/4/23,11:00,107,178
�����w�O,�w����,2022/4/23,12:00,154,177
�����w�O,�w����,2022/4/23,13:00,154,185
�����w�O,�w����,2022/4/23,14:00,228,245
�����w�O,�w����,2022/4/23,15:00,181,162
�����w�O,�w����,2022/4/23,16:00,183,167
�����w�O,�w����,2022/4/23,17:00,155,150
�����w�O,�w����,2022/4/23,18:00,114,130
�����w�O,�w����,2022/4/23,19:00,88,132
�����w�O,�w����,2022/4/23,20:00,54,73
�����w�O,�w����,2022/4/23,21:00,34,55
�����w�O,�w����,2022/4/23,22:00,32,34
�����w�O,�w����,2022/4/23,23:00,11,14
�����w�O,�w����,2022/4/24,0:00,1,4
�����w�O,�w����,2022/4/24,1:00,0,0
�����w�O,�w����,2022/4/24,2:00,0,0
�����w�O,�w����,2022/4/24,3:00,0,0
�����w�O,�w����,2022/4/24,4:00,0,1
�����w�O,�w����,2022/4/24,5:00,2,3
�����w�O,�w����,2022/4/24,6:00,28,18
�����w�O,�w����,2022/4/24,7:00,69,69
�����w�O,�w����,2022/4/24,8:00,101,134
�����w�O,�w����,2022/4/24,9:00,168,135
�����w�O,�w����,2022/4/24,10:00,173,218
�����w�O,�w����,2022/4/24,11:00,113,170
�����w�O,�w����,2022/4/24,12:00,176,177
�����w�O,�w����,2022/4/24,13:00,237,166
�����w�O,�w����,2022/4/24,14:00,216,213
�����w�O,�w����,2022/4/24,15:00,140,137
�����w�O,�w����,2022/4/24,16:00,211,131
�����w�O,�w����,2022/4/24,17:00,168,147
�����w�O,�w����,2022/4/24,18:00,106,83
�����w�O,�w����,2022/4/24,19:00,71,128
�����w�O,�w����,2022/4/24,20:00,54,61
�����w�O,�w����,2022/4/24,21:00,24,47
�����w�O,�w����,2022/4/24,22:00,18,21
�����w�O,�w����,2022/4/24,23:00,9,20
�����w�O,�w����,2022/4/25,0:00,1,3
�����w�O,�w����,2022/4/25,1:00,0,0
�����w�O,�w����,2022/4/25,2:00,0,0
�����w�O,�w����,2022/4/25,3:00,1,0
�����w�O,�w����,2022/4/25,4:00,0,1
�����w�O,�w����,2022/4/25,5:00,8,9
�����w�O,�w����,2022/4/25,6:00,104,43
�����w�O,�w����,2022/4/25,7:00,200,211
�����w�O,�w����,2022/4/25,8:00,131,202
�����w�O,�w����,2022/4/25,9:00,122,135
�����w�O,�w����,2022/4/25,10:00,87,127
�����w�O,�w����,2022/4/25,11:00,104,138
�����w�O,�w����,2022/4/25,12:00,114,99
�����w�O,�w����,2022/4/25,13:00,160,174
�����w�O,�w����,2022/4/25,14:00,168,168
�����w�O,�w����,2022/4/25,15:00,125,115
�����w�O,�w����,2022/4/25,16:00,199,139
�����w�O,�w����,2022/4/25,17:00,194,145
�����w�O,�w����,2022/4/25,18:00,192,135
�����w�O,�w����,2022/4/25,19:00,128,132
�����w�O,�w����,2022/4/25,20:00,45,59
�����w�O,�w����,2022/4/25,21:00,31,45
�����w�O,�w����,2022/4/25,22:00,14,33
�����w�O,�w����,2022/4/25,23:00,3,9
�����w�O,�w����,2022/4/26,0:00,1,0
�����w�O,�w����,2022/4/26,1:00,0,0
�����w�O,�w����,2022/4/26,2:00,0,0
�����w�O,�w����,2022/4/26,3:00,0,0
�����w�O,�w����,2022/4/26,4:00,3,0
�����w�O,�w����,2022/4/26,5:00,7,3
�����w�O,�w����,2022/4/26,6:00,108,54
�����w�O,�w����,2022/4/26,7:00,213,240
�����w�O,�w����,2022/4/26,8:00,126,207
�����w�O,�w����,2022/4/26,9:00,88,150
�����w�O,�w����,2022/4/26,10:00,57,79
�����w�O,�w����,2022/4/26,11:00,109,104
�����w�O,�w����,2022/4/26,12:00,118,107
�����w�O,�w����,2022/4/26,13:00,100,96
�����w�O,�w����,2022/4/26,14:00,107,90
�����w�O,�w����,2022/4/26,15:00,162,134
�����w�O,�w����,2022/4/26,16:00,231,148
�����w�O,�w����,2022/4/26,17:00,270,144
�����w�O,�w����,2022/4/26,18:00,294,140
�����w�O,�w����,2022/4/26,19:00,161,168